GFSWCAN_sfc_rhum_225.txt.gz
RH
75 76 78 74 79 87 87 89 89 88 87 87 87 86 86 86 85 91 99 93 97 100 98 93 95 97 95 99 99 100 99 99 100 100 100 100 100 97 98 78 81 95 99 98 98 100 98 57 55 63 61 49 49 49
77 77 78 79 79 76 85 88 88 89 90 89 88 87 86 84 84 85 99 92 93 99 100 94 86 84 92 97 98 97 99 98 99 100 100 99 100 100 98 97 83 97 79 87 91 89 68 59 56 50 46 49 47 47
77 78 80 79 80 81 81 86 90 88 88 88 90 88 87 85 83 86 99 98 98 100 100 98 96 83 91 94 93 99 98 97 96 99 100 100 100 99 99 97 91 84 74 87 84 78 72 60 56 48 47 48 42 40
79 80 83 83 82 80 82 83 89 89 87 89 91 88 85 86 83 83 98 96 93 98 99 99 88 91 87 91 94 88 92 97 96 98 100 100 100 99 99 97 89 78 78 81 88 76 72 66 62 53 59 64 52 40
86 86 86 85 85 84 81 84 87 91 88 90 90 87 87 86 83 89 97 94 89 86 97 98 92 85 88 94 96 94 95 96 100 100 100 100 100 100 100 100 100 82 79 84 85 78 76 74 64 59 70 71 58 44
86 89 89 89 87 86 85 85 84 91 88 88 90 89 87 87 88 98 100 97 91 94 96 93 91 93 89 93 96 96 94 95 99 100 100 100 96 99 98 97 75 74 71 70 84 85 86 79 66 58 64 63 47 47
90 89 91 91 92 89 87 86 84 90 89 88 88 88 89 87 96 99 99 96 88 94 99 97 88 93 96 90 98 99 97 99 98 100 100 100 99 98 100 96 68 63 64 65 66 69 70 65 64 58 56 59 62 59
92 95 96 96 92 92 89 85 88 88 88 89 89 88 90 93 92 97 97 89 84 97 98 97 96 89 92 98 100 98 100 99 100 100 100 100 99 100 99 79 62 54 52 58 70 68 66 59 60 66 67 68 70 72
92 94 94 94 93 88 86 89 90 85 86 90 94 89 94 98 100 100 93 90 97 97 99 92 84 92 95 94 94 100 100 100 100 99 92 98 98 95 77 71 63 60 64 62 59 57 56 67 70 73 74 76 86 91
90 91 88 88 90 92 93 88 93 93 92 87 92 98 100 100 91 86 97 100 100 100 100 87 78 88 82 97 99 98 100 97 96 86 97 99 83 68 55 58 60 66 66 65 78 84 83 85 85 86 92 97 97 96
89 89 88 87 89 90 92 90 87 85 85 96 100 99 100 88 98 100 100 98 97 97 96 90 83 91 95 92 93 89 94 92 93 80 92 85 80 69 63 70 71 68 66 66 64 68 71 79 96 97 99 99 99 99
90 90 88 87 88 83 81 79 80 92 95 90 95 96 95 97 97 96 96 95 93 83 94 93 92 89 99 95 94 97 95 91 88 85 94 90 76 71 74 84 82 78 77 82 79 82 86 97 97 97 96 97 94 90
89 84 86 85 83 86 85 85 83 84 77 79 85 91 91 93 96 91 95 90 96 92 94 98 98 97 99 93 93 91 95 90 82 94 86 70 66 71 85 87 89 87 86 89 93 95 98 98 98 98 97 97 90 93
88 89 86 85 87 85 80 78 78 84 73 85 85 99 88 96 91 86 79 82 84 89 95 94 96 95 94 95 92 95 82 85 95 97 82 77 77 86 90 88 93 96 96 96 96 91 92 93 95 94 94 94 94 96
80 80 79 82 85 85 82 85 85 80 78 83 73 78 93 88 92 94 95 93 94 94 93 96 96 89 95 95 88 86 96 92 84 80 81 92 93 89 90 90 93 94 96 96 87 89 93 92 90 96 96 93 90 97
72 70 78 83 83 81 78 77 72 75 84 83 85 94 89 90 96 95 94 94 92 92 90 90 94 95 93 90 92 87 81 82 78 85 91 82 89 88 91 94 96 92 89 94 82 78 86 92 89 84 84 86 94 90
66 81 75 82 84 82 73 67 68 76 86 79 96 94 94 92 94 96 95 95 87 89 96 88 95 79 91 90 87 77 90 83 93 89 87 86 89 92 93 95 97 94 90 83 82 83 84 80 82 74 79 85 78 79
84 84 77 79 80 67 75 75 78 82 78 93 93 94 96 95 96 95 99 97 94 94 88 88 76 85 92 79 84 83 94 90 90 93 95 94 92 91 91 93 96 89 85 90 89 90 84 84 78 82 76 71 66 66
89 86 79 76 84 70 70 74 76 84 87 92 94 94 95 95 95 94 97 97 100 94 98 94 84 83 83 82 83 92 87 88 94 95 94 92 91 95 94 93 90 87 87 84 76 78 79 79 75 71 68 64 67 74
75 74 76 76 74 72 66 79 81 83 88 88 92 94 94 94 95 98 98 99 97 97 95 94 82 85 88 89 89 90 87 86 91 94 95 95 91 90 90 88 88 84 83 83 83 81 76 75 71 72 77 82 85 89
84 78 79 76 79 76 76 85 82 81 84 92 93 94 95 91 96 96 95 94 97 95 87 88 93 92 89 91 94 90 94 89 90 87 88 95 94 90 92 92 88 83 82 83 83 84 79 77 80 82 92 96 94 92
86 77 82 75 78 73 78 78 74 82 86 90 94 93 95 98 94 93 92 93 88 83 88 90 91 93 97 98 96 90 91 83 86 90 94 93 96 94 93 91 85 89 85 86 77 82 81 82 84 85 92 97 92 91
83 77 80 68 74 79 82 82 80 83 90 91 93 87 90 93 89 85 93 81 86 86 85 89 89 88 96 97 93 91 90 85 90 89 92 92 90 89 91 89 85 89 88 82 74 80 87 94 93 95 93 92 92 95
77 80 89 90 71 86 84 94 79 81 89 91 93 89 87 90 91 95 93 89 90 89 94 96 89 92 90 88 93 93 93 87 90 92 89 89 91 92 88 88 84 83 78 79 81 88 91 97 98 92 96 95 96 96
93 85 88 90 87 96 98 99 97 83 97 85 88 97 96 89 99 96 86 88 95 92 92 91 88 87 91 93 94 93 92 85 88 94 92 85 90 90 89 86 84 84 82 90 93 93 98 99 98 96 96 95 93 96
99 93 92 88 95 90 91 99 98 95 92 95 90 90 92 96 100 99 88 88 97 94 95 87 86 91 89 85 90 91 89 84 82 89 90 82 82 89 91 92 92 91 82 85 92 92 96 99 97 96 96 97 100 94
97 100 79 73 72 73 90 85 76 88 96 92 94 97 92 99 98 86 82 88 93 93 81 82 83 84 86 91 90 88 84 81 85 82 83 79 78 75 82 89 90 83 85 86 88 87 90 97 97 96 97 99 96 94
90 87 100 97 98 84 93 95 95 91 88 81 85 94 90 87 80 79 83 96 95 94 93 94 90 86 87 89 90 91 92 91 91 87 83 83 86 88 89 89 88 95 88 90 90 92 93 100 96 95 95 94 98 98
98 91 88 100 98 96 90 86 86 84 81 86 91 91 87 81 90 98 96 96 94 92 96 96 97 96 96 93 94 88 89 86 84 86 86 91 90 94 94 92 91 89 90 94 100 98 96 96 95 95 94 94 97 96
96 88 95 98 96 96 92 90 93 95 93 88 87 93 91 88 96 96 96 96 98 99 98 97 96 94 97 96 98 95 94 92 89 86 87 90 87 94 96 93 93 94 96 95 95 94 98 96 97 95 95 97 96 96
95 94 96 94 94 95 96 98 99 97 96 94 98 94 95 96 93 96 95 96 97 97 97 99 97 93 93 95 93 93 95 93 89 84 86 90 93 96 94 93 94 96 95 95 96 96 98 97 95 95 95 98 99 96
98 97 99 100 97 96 97 99 99 97 97 95 99 97 98 99 99 97 97 96 97 97 97 94 93 94 94 93 92 90 89 90 90 90 88 90 93 94 94 94 96 95 94 95 95 95 93 94 96 94 96 97 98 97
98 98 96 97 95 96 95 98 96 98 97 97 96 100 98 93 86 93 96 94 93 93 94 94 96 94 91 88 88 95 89 90 94 93 94 90 92 95 96 97 95 94 95 96 96 96 97 96 98 98 97 97 99 98

GFSWCAN_sfc_rhum_228.txt.gz
RH
76 77 77 77 79 78 84 86 88 88 88 87 87 87 86 85 87 89 96 93 97 100 98 93 92 93 92 97 96 100 99 98 100 100 100 100 100 94 87 55 59 86 98 98 98 100 98 42 39 59 46 38 38 35
76 76 75 79 78 79 77 84 88 90 89 88 88 87 87 86 85 85 98 88 85 94 99 86 80 86 87 94 95 96 99 98 100 99 92 98 100 99 92 92 49 85 74 79 83 83 52 43 45 39 39 40 39 36
78 78 76 78 82 79 79 80 84 90 90 89 88 88 87 85 84 84 98 96 96 98 98 93 79 62 73 82 89 99 98 96 98 98 100 100 100 99 100 94 69 72 62 76 76 59 46 47 44 42 39 40 34 32
83 84 84 84 83 84 82 82 83 88 90 89 90 89 88 87 85 83 97 92 82 86 98 98 71 73 71 75 81 80 80 94 94 98 100 100 100 99 100 97 95 72 74 80 85 69 60 60 56 56 47 43 44 44
89 89 89 89 87 86 85 83 85 85 89 86 88 88 89 88 86 91 96 89 74 57 97 92 79 72 74 75 78 82 86 89 99 100 100 100 99 100 100 100 99 81 84 91 96 76 76 68 61 58 66 61 52 56
90 91 92 91 91 89 87 85 86 85 90 87 88 90 91 89 85 96 100 96 87 73 84 92 82 85 77 79 81 86 93 95 98 100 100 100 93 90 100 92 49 47 58 64 85 91 88 83 81 72 61 46 41 41
93 93 93 94 93 90 88 84 85 86 90 88 89 89 88 88 95 98 96 88 84 81 94 94 79 82 80 78 85 86 83 97 98 100 100 98 98 98 100 90 42 40 45 45 57 58 67 57 57 48 49 43 47 42
91 92 94 95 92 90 88 86 84 90 88 89 89 88 87 88 91 96 93 85 72 95 91 96 87 74 81 87 91 90 93 98 100 100 100 99 97 100 100 67 47 38 37 44 49 52 44 37 37 42 49 48 52 50
88 88 90 90 90 88 86 88 89 88 88 87 92 85 94 96 100 100 90 89 95 91 100 87 68 80 72 78 78 96 96 97 95 100 98 97 95 97 67 50 42 38 46 47 42 43 42 46 46 45 54 57 56 63
89 91 90 92 90 89 90 91 94 89 87 85 91 98 100 100 90 87 96 100 100 100 94 73 46 74 64 73 92 88 100 91 90 75 88 99 65 46 37 37 42 45 46 44 54 58 60 59 52 54 59 57 58 79
88 90 91 91 90 90 91 89 86 82 78 80 98 100 99 86 92 100 100 100 98 99 92 72 53 76 64 80 81 60 84 82 88 66 82 69 57 48 44 49 50 51 48 47 46 44 46 50 56 67 94 98 98 99
89 86 86 87 88 88 86 84 84 84 77 71 88 92 90 83 97 95 92 84 77 59 77 79 76 68 85 72 72 93 89 82 78 63 88 75 53 52 57 67 62 63 58 54 50 52 62 76 88 97 99 99 98 97
88 87 87 87 87 82 82 85 83 81 68 62 69 98 94 87 95 86 92 73 77 69 81 86 95 86 95 79 82 87 95 84 60 85 70 49 46 45 53 62 70 71 73 81 86 93 97 99 98 100 100 100 100 99
89 85 85 85 83 84 86 86 83 67 48 69 79 92 91 94 75 64 54 58 66 68 77 74 91 88 88 92 93 100 69 69 86 85 65 60 72 78 73 76 82 90 93 95 98 96 98 99 99 100 100 100 99 97
76 78 80 79 85 85 82 80 75 54 54 65 61 81 81 80 81 82 80 76 79 79 87 94 91 82 89 98 78 74 87 79 64 61 67 85 86 75 76 86 95 96 98 87 79 90 94 94 87 94 94 87 86 93
71 71 69 80 81 82 79 64 52 50 59 62 66 84 79 89 99 97 96 94 77 81 76 82 90 93 88 82 86 78 67 66 63 70 86 76 75 76 88 96 97 93 86 80 73 73 79 88 83 76 74 77 86 85
67 56 74 79 81 79 71 52 48 55 60 58 90 80 82 85 99 94 83 80 70 80 87 71 89 72 76 77 70 60 74 68 86 86 79 73 76 86 89 96 100 100 80 72 70 70 73 68 66 64 72 70 64 67
55 55 75 78 72 65 56 56 54 57 58 72 75 88 82 88 95 87 80 75 80 82 72 73 60 72 80 68 66 68 79 81 80 82 86 84 83 86 85 89 94 76 71 83 84 83 78 76 65 68 62 58 59 57
71 70 73 75 72 54 55 56 56 58 64 75 78 77 84 88 83 80 83 83 89 73 81 78 76 70 65 58 63 74 79 77 84 91 92 90 88 96 98 95 90 84 86 80 65 67 66 64 63 59 57 53 57 60
76 72 73 77 72 52 50 56 59 56 59 65 71 70 72 80 81 91 94 100 99 95 95 93 73 73 74 76 76 76 77 76 84 90 93 94 91 86 82 74 74 72 74 71 69 67 62 60 54 54 57 59 64 68
70 63 72 63 59 56 50 58 55 51 57 66 67 73 80 82 88 91 89 90 96 92 82 79 87 86 92 87 85 77 80 76 79 74 82 92 87 79 81 79 74 72 73 73 75 75 68 67 58 58 79 84 84 80
58 70 60 60 58 58 56 50 50 55 62 64 80 73 84 94 92 86 84 92 85 72 73 76 75 81 90 96 95 79 87 71 71 75 82 84 90 89 88 87 82 85 78 81 70 78 69 58 62 68 80 87 78 82
74 70 64 58 68 69 71 57 62 57 72 78 78 77 77 82 70 66 85 65 67 68 66 64 73 73 82 95 83 83 88 73 75 75 80 78 78 80 82 81 78 84 80 71 64 69 73 76 82 82 82 81 82 86
77 73 85 79 69 78 73 83 62 63 68 69 73 79 68 72 70 76 72 63 69 67 66 88 71 79 80 82 80 81 78 68 70 75 76 74 77 78 74 73 72 73 70 66 65 74 75 85 85 78 83 85 87 85
78 82 84 84 76 88 93 89 81 70 86 70 69 78 81 74 83 76 72 67 75 82 78 74 70 65 74 82 82 81 86 68 70 78 80 67 76 81 81 75 71 70 70 84 85 84 86 86 85 84 82 83 81 83
91 81 88 77 84 84 82 92 93 89 80 83 76 69 82 87 91 84 64 76 89 86 99 100 92 76 72 68 76 78 76 67 66 73 76 70 72 86 87 86 86 82 67 78 83 82 82 82 84 83 87 88 87 82
87 90 67 56 57 61 80 74 63 76 88 84 81 91 90 91 84 68 63 67 72 80 73 71 67 66 67 71 69 71 70 68 74 72 72 67 66 64 77 85 80 76 71 78 80 78 80 84 85 82 86 86 84 82
75 70 92 83 78 63 84 82 85 85 74 60 74 94 89 76 62 67 70 86 85 76 80 85 80 75 71 73 78 83 85 84 86 77 71 70 71 77 80 82 79 77 77 78 81 80 79 81 84 84 83 85 90 85
86 69 75 96 93 82 81 80 76 68 62 70 84 79 76 61 82 88 92 90 88 86 90 93 96 92 88 84 84 81 84 82 83 82 80 87 86 88 81 83 81 80 81 84 88 81 80 84 86 85 84 86 87 84
87 69 81 92 92 86 84 75 85 89 72 73 71 75 73 84 87 90 93 94 90 91 93 93 94 95 96 93 96 95 92 92 87 82 82 84 82 89 88 87 86 84 82 84 88 88 90 92 92 90 88 88 87 87
77 83 89 82 86 90 98 94 95 94 92 88 93 91 83 91 92 92 92 92 93 96 96 97 96 93 92 92 91 92 93 89 81 80 83 86 89 88 87 84 85 84 84 86 88 88 89 87 86 85 84 85 86 84
93 89 93 97 94 90 90 96 97 94 94 91 93 93 95 96 90 93 96 95 97 98 93 92 93 95 88 88 87 88 77 85 83 82 82 85 86 86 84 83 85 82 84 85 86 86 84 83 84 83 85 85 84 84
93 92 91 88 89 89 92 92 88 92 94 89 92 93 93 88 80 94 92 91 94 94 92 89 90 90 87 84 85 87 80 81 80 81 83 83 84 84 86 86 84 84 83 84 85 84 83 82 84 84 84 86 86 84

GFSWCAN_sfc_rhum_231.txt.gz
RH
76 76 76 76 77 78 78 85 86 90 90 91 91 89 90 92 89 91 98 96 97 100 98 95 96 95 95 93 94 100 95 96 100 100 100 100 100 94 86 53 56 85 98 98 98 100 97 36 33 49 42 36 30 30
78 78 78 78 78 80 77 78 86 89 90 90 89 89 87 88 91 85 94 90 93 96 99 94 92 94 93 94 94 97 98 98 99 100 98 98 100 96 81 87 46 76 80 78 76 78 50 40 40 33 31 35 33 34
86 87 85 85 82 80 79 77 80 88 89 89 89 88 88 86 89 86 94 91 84 94 92 90 80 71 90 91 90 98 98 94 98 97 100 100 100 99 100 84 66 56 48 73 67 52 48 40 37 38 34 40 36 34
90 90 90 86 85 83 83 79 80 85 91 91 89 88 88 86 85 87 96 92 65 69 96 97 61 66 58 74 79 81 87 96 94 97 100 100 100 98 100 99 99 83 89 74 75 73 72 54 56 69 66 50 44 37
90 92 92 91 88 86 84 84 83 82 89 91 91 90 89 88 85 93 95 84 67 52 96 91 70 61 60 62 69 74 76 86 97 100 100 100 99 98 97 98 87 49 66 91 97 89 90 87 75 74 68 60 53 60
90 92 93 93 92 90 88 88 85 82 86 89 90 90 89 88 89 96 100 95 89 76 81 90 79 76 68 69 67 77 82 87 93 100 100 99 82 83 100 89 45 36 32 34 63 82 84 68 66 62 80 71 64 69
89 93 90 93 93 90 88 86 85 82 90 88 88 88 89 90 93 98 97 82 88 89 89 91 82 79 72 71 76 81 75 92 95 99 100 80 76 82 100 90 43 35 32 33 41 75 70 49 46 42 43 42 42 40
90 91 94 93 91 89 86 84 83 86 88 88 90 92 91 90 90 95 92 84 78 90 76 95 90 76 74 85 89 77 86 96 100 100 100 93 70 99 100 48 38 34 33 34 33 43 46 38 36 33 33 34 45 48
92 88 89 89 88 86 85 85 88 88 88 91 90 86 92 96 100 98 86 89 94 89 99 82 63 78 65 78 80 87 88 100 83 98 77 67 69 89 58 40 34 33 35 36 30 33 32 37 38 36 36 39 47 52
92 93 92 87 88 91 91 90 90 88 86 84 90 98 100 100 90 86 94 99 100 100 92 73 39 67 54 71 77 80 91 86 83 58 64 87 60 41 34 32 31 32 30 36 46 50 44 42 42 45 41 40 46 50
88 91 94 93 93 92 91 90 86 82 82 88 100 100 99 88 94 100 100 100 99 100 86 61 42 64 48 76 78 53 82 64 73 54 70 61 49 38 39 46 46 43 42 39 36 37 37 40 42 47 72 75 90 98
88 86 82 88 90 91 90 88 83 76 75 75 80 89 94 97 97 96 92 74 67 54 65 66 58 57 64 60 70 80 75 63 68 55 84 63 44 45 41 46 48 51 50 48 42 42 59 70 70 86 96 99 98 98
87 87 83 86 88 85 85 84 79 80 68 57 68 97 96 83 99 88 92 61 65 55 65 74 92 84 78 71 76 70 90 81 53 83 65 39 38 43 47 47 58 61 72 78 89 95 98 100 98 98 98 100 100 99
83 83 84 84 85 84 82 82 78 72 50 66 75 97 90 99 68 52 47 50 58 58 64 69 87 80 78 77 72 96 58 60 77 85 54 53 73 64 61 71 72 87 92 97 99 98 99 100 100 100 100 100 100 100
75 77 74 78 83 83 80 76 67 43 43 58 57 94 76 71 70 73 70 68 70 73 88 95 82 76 76 94 69 67 83 78 58 50 61 78 70 62 67 76 82 92 99 93 93 96 100 100 88 96 97 86 85 100
72 71 62 78 80 79 78 59 43 39 47 54 53 75 71 83 96 94 90 92 74 78 72 78 78 87 81 69 72 75 58 56 53 56 79 61 62 62 77 94 100 95 75 72 71 72 78 87 80 71 72 77 89 90
73 49 72 75 79 82 67 46 43 41 50 47 81 67 72 75 96 92 82 78 67 87 91 63 82 68 66 71 68 52 65 59 80 80 67 62 65 74 80 92 100 100 77 68 68 68 67 64 61 60 64 61 59 64
45 49 72 73 70 56 42 42 48 49 43 55 67 78 68 76 86 80 76 76 79 74 61 71 55 68 78 56 56 60 63 73 66 68 70 67 71 78 81 88 94 70 68 76 78 81 69 72 60 61 56 53 53 52
60 64 75 74 69 58 48 48 47 51 49 58 60 61 63 72 67 70 77 77 72 63 71 67 61 61 58 49 56 59 66 66 75 76 81 75 79 96 97 93 86 75 83 74 60 64 61 59 58 55 52 50 54 57
73 75 72 74 71 49 45 45 45 45 48 54 56 56 59 61 67 84 81 83 74 77 83 74 61 59 62 60 61 64 66 66 75 83 88 89 88 85 79 71 71 68 68 65 63 67 56 55 50 52 52 52 59 61
62 60 67 61 50 51 43 44 42 38 43 51 49 51 58 66 69 76 88 93 96 82 69 63 72 72 78 81 70 66 69 68 72 69 76 92 88 70 68 68 65 66 70 71 72 72 68 68 55 53 75 81 76 70
52 69 48 53 53 46 43 33 37 38 46 46 59 55 58 86 84 76 71 88 83 67 64 67 64 72 80 87 92 69 73 65 66 73 78 82 86 85 83 80 79 84 84 87 75 78 68 55 57 61 75 80 67 74
68 62 54 52 75 72 66 44 47 39 52 58 58 58 56 64 60 57 80 59 60 56 55 55 55 58 64 93 79 74 86 69 68 67 73 76 76 83 86 85 85 89 85 72 69 74 72 62 68 77 74 73 76 83
73 63 94 77 64 83 65 72 43 40 42 49 55 62 48 60 59 67 63 54 54 49 54 66 59 66 69 72 73 78 76 64 63 66 67 67 73 76 77 76 78 76 74 66 66 74 72 80 73 69 76 77 78 77
74 82 90 82 74 86 84 80 61 49 75 66 55 62 70 57 74 64 61 58 57 70 69 60 59 56 65 72 71 73 73 62 63 68 68 61 74 74 74 72 76 72 69 82 84 84 81 78 76 76 73 76 73 74
82 77 88 72 78 74 62 74 73 72 63 70 65 54 69 78 82 79 50 61 78 78 99 99 87 61 56 54 64 75 73 60 63 74 67 61 68 83 84 85 86 80 66 86 82 82 77 73 73 71 81 80 77 74
77 78 56 46 48 49 65 64 51 62 73 74 67 82 84 83 77 58 57 60 62 70 65 69 64 56 54 55 60 66 64 61 77 72 66 65 68 71 80 84 81 76 70 76 82 79 77 74 73 72 76 78 76 77
65 60 79 73 66 49 78 72 79 79 70 47 61 81 78 72 59 64 64 78 77 67 75 75 67 56 63 76 81 85 86 83 88 79 72 70 71 81 86 85 79 72 78 81 82 76 74 71 72 73 75 79 81 77
74 55 56 81 74 69 73 76 71 58 51 59 82 73 73 55 83 79 82 82 80 77 85 90 95 97 91 88 85 82 90 92 92 89 86 88 88 87 80 82 82 81 82 81 75 70 69 71 72 78 78 79 79 80
69 53 71 81 80 74 82 70 86 94 57 64 64 61 58 82 87 82 88 91 86 95 99 99 96 97 94 93 94 92 97 100 100 97 88 85 85 85 83 82 82 81 78 79 79 81 83 86 84 84 82 82 82 81
61 69 78 72 74 88 99 96 100 97 97 92 97 97 82 93 92 86 85 91 93 96 95 96 95 97 91 92 98 96 97 97 92 97 98 94 87 84 82 80 79 79 78 78 80 79 81 79 79 78 76 77 78 78
85 83 78 74 80 87 90 94 92 93 95 99 98 98 100 100 97 94 92 94 92 93 87 88 93 95 99 100 100 100 84 86 84 85 85 85 84 83 79 75 78 76 76 76 77 76 72 74 77 77 78 77 76 77
82 81 79 76 87 86 85 87 84 86 94 88 89 92 95 95 86 99 91 98 98 98 93 94 100 99 98 99 98 96 83 85 81 78 77 78 79 79 79 78 77 76 74 76 76 74 72 71 75 75 76 78 78 78

GFSWCAN_sfc_rhum_234.txt.gz
RH
80 81 82 82 79 78 80 84 90 88 90 88 91 93 94 94 94 94 100 97 94 100 98 90 90 89 88 79 88 99 88 97 98 95 98 100 100 88 83 57 73 89 98 99 96 100 96 41 38 54 46 41 38 38
85 88 88 87 84 82 80 78 88 90 92 91 89 91 93 94 94 92 99 97 94 97 100 95 94 93 92 97 95 98 98 98 99 98 99 99 100 99 86 89 54 95 86 86 83 81 53 43 46 40 47 58 54 51
91 90 91 89 86 83 80 77 82 90 92 92 92 92 92 92 92 92 98 98 96 99 100 98 96 97 93 94 95 98 99 96 98 99 100 100 100 99 100 96 86 64 62 87 76 57 50 47 61 66 67 68 60 58
88 89 91 90 88 84 81 79 79 88 92 93 92 90 90 90 89 88 96 94 92 91 100 99 66 73 79 87 91 91 95 96 96 98 100 100 100 100 100 95 90 76 67 74 76 63 68 61 72 69 72 73 69 69
90 89 91 92 91 85 84 82 82 87 90 91 90 87 88 88 88 91 92 82 73 86 100 99 67 62 59 67 80 86 91 95 99 100 100 100 100 98 99 98 87 50 59 86 99 90 87 81 67 63 60 69 71 84
89 93 92 94 92 88 87 85 83 85 90 91 89 87 86 89 85 95 100 94 80 74 83 93 78 75 67 68 77 83 87 93 96 100 100 100 87 91 100 90 42 37 37 40 48 45 65 64 57 50 62 66 73 75
90 93 92 93 91 90 89 88 85 83 91 90 90 88 91 86 90 94 94 80 83 78 93 98 94 84 69 68 82 87 80 92 90 99 100 86 81 84 100 83 41 39 35 36 36 40 44 38 47 47 43 37 42 40
89 89 90 90 90 89 86 86 85 90 89 90 90 89 91 88 89 93 82 82 76 88 78 98 96 81 72 85 93 81 93 94 96 100 99 93 76 90 98 52 36 31 29 31 32 32 35 33 37 42 36 35 41 40
94 88 88 88 86 86 86 87 90 89 88 87 92 86 92 96 100 100 87 87 92 85 98 81 69 94 67 81 81 83 76 97 90 96 80 68 73 87 65 49 36 35 39 37 33 32 33 40 36 33 35 38 44 47
94 95 96 92 89 92 92 92 92 90 88 86 90 98 100 100 85 82 94 100 100 100 90 70 51 78 60 70 83 84 87 81 87 68 55 77 65 44 37 34 33 44 42 40 49 55 49 49 49 45 41 55 55 59
90 90 92 94 92 91 88 87 88 84 82 91 99 100 99 88 87 99 100 100 99 99 78 62 56 64 50 76 82 59 85 69 73 58 68 66 53 44 52 47 42 45 43 40 38 38 41 51 57 70 89 91 94 94
88 88 89 91 86 87 88 82 80 82 86 72 83 94 97 84 98 97 92 76 68 57 63 64 72 63 59 58 69 78 70 63 62 58 82 68 56 44 45 44 49 54 60 65 71 78 89 91 92 94 96 97 97 98
86 88 86 88 87 84 85 87 81 82 67 55 71 99 94 86 95 85 86 62 70 64 60 76 93 83 71 57 73 69 79 76 50 82 65 47 46 47 46 49 61 64 70 77 87 92 97 100 98 98 98 99 98 99
82 82 83 83 84 83 78 76 83 74 63 75 76 98 91 94 70 60 54 60 64 62 65 74 92 78 72 74 74 85 57 59 74 78 56 62 70 61 61 66 68 81 95 98 99 98 98 98 98 99 100 100 98 97
76 76 78 75 81 82 82 78 70 56 48 58 58 88 71 71 78 76 80 74 70 73 88 90 83 68 69 90 67 65 78 71 56 50 71 87 63 56 62 71 80 94 99 95 91 92 99 94 88 95 94 87 89 90
74 74 64 78 79 78 82 62 51 40 45 52 50 70 70 88 97 99 99 96 70 85 75 70 74 86 79 69 66 71 56 52 50 71 83 61 56 59 72 91 94 84 75 76 76 76 78 85 80 76 78 83 92 91
75 57 76 78 80 80 75 51 42 38 48 44 77 66 71 81 98 90 84 87 70 82 92 68 77 68 61 66 61 52 64 59 83 83 66 57 61 72 92 98 100 98 77 77 76 70 70 70 68 64 65 63 62 67
61 59 74 75 73 59 40 40 47 49 43 52 68 75 70 73 81 87 89 73 84 79 66 67 56 62 72 58 57 61 65 79 70 70 69 65 75 83 87 90 98 88 81 82 79 76 72 76 62 63 58 54 58 60
62 64 72 76 72 68 46 45 45 56 46 54 55 57 60 73 67 76 82 79 69 72 78 68 61 60 60 56 64 67 73 78 79 75 85 84 87 98 95 93 90 82 83 79 68 72 70 66 67 62 58 57 61 66
71 74 77 74 70 51 42 43 41 47 47 55 55 57 57 60 62 80 80 83 82 80 82 74 62 68 71 75 74 70 75 74 78 88 93 94 93 85 82 80 81 74 73 68 70 69 61 59 56 58 59 62 69 70
65 61 66 60 47 50 47 43 43 37 39 50 48 50 55 54 64 78 78 80 95 87 70 70 77 75 86 86 71 70 76 70 77 75 86 94 90 83 82 80 78 80 80 85 82 75 79 76 62 61 78 85 81 73
66 69 42 48 51 43 42 35 36 34 41 41 52 51 58 88 86 74 60 84 75 73 68 70 69 77 87 80 89 70 75 69 69 77 82 81 84 86 88 87 76 89 89 92 81 84 76 62 64 65 79 84 74 76
65 60 51 44 70 69 66 40 44 39 49 47 47 51 51 56 54 54 88 66 65 64 62 61 62 66 75 93 76 74 85 70 74 79 83 79 80 87 90 92 90 94 94 89 79 79 80 68 71 81 75 73 80 88
68 68 91 75 59 79 62 70 45 40 41 43 52 59 46 56 56 66 66 59 60 59 59 62 62 70 76 77 76 80 78 71 72 82 82 82 88 92 87 91 93 92 86 79 79 82 76 84 77 70 78 77 78 85
85 82 88 82 70 82 80 76 56 48 63 60 56 61 62 55 71 61 60 56 62 67 70 62 64 66 74 78 76 79 77 70 76 81 82 78 80 86 90 90 89 86 80 91 89 88 88 85 83 79 73 77 79 81
86 74 82 68 72 68 59 71 72 68 60 66 61 52 65 72 70 71 50 69 88 79 100 100 82 68 64 60 69 80 76 67 73 79 88 78 79 88 90 93 93 89 80 89 89 83 80 79 81 81 84 80 81 80
78 74 52 43 48 48 55 62 44 57 69 70 61 80 77 79 73 57 64 64 65 76 73 76 68 65 60 58 69 72 70 85 81 76 81 81 83 78 85 90 87 85 82 83 83 80 79 80 80 81 84 80 80 82
64 56 76 69 62 47 65 64 69 73 65 49 60 78 72 67 65 72 76 76 77 76 77 82 79 69 70 82 87 90 91 87 87 84 82 85 91 92 90 88 82 78 83 84 82 81 79 79 80 81 83 83 87 83
68 52 54 83 75 63 64 68 62 52 47 57 81 69 67 60 83 77 79 77 80 81 80 93 100 99 94 91 93 90 90 90 91 94 91 94 95 95 87 86 86 85 86 82 80 78 76 79 81 86 80 82 83 84
60 47 68 74 79 74 76 65 90 100 55 68 63 60 61 85 89 80 83 85 91 100 100 100 100 100 97 96 98 97 99 100 99 92 91 91 89 89 88 88 88 88 86 85 86 89 86 86 84 85 84 86 84 83
55 64 69 72 73 79 96 100 97 95 97 92 98 98 84 97 96 88 85 95 100 100 98 95 97 97 94 96 95 96 98 99 100 99 92 89 88 88 87 86 86 85 84 84 85 84 86 84 84 82 82 86 86 83
80 75 76 72 74 96 95 92 88 86 85 90 88 96 94 95 91 97 98 98 94 88 89 90 91 95 97 97 99 100 86 91 93 90 87 87 88 85 83 82 84 82 83 83 82 82 80 80 82 84 84 79 79 86
77 77 75 76 75 91 88 86 86 82 91 88 85 93 89 91 88 98 92 98 97 96 91 95 99 100 100 99 97 93 88 91 87 85 83 82 80 82 84 84 83 82 80 82 82 79 77 77 80 80 82 84 84 82